User: anonymous   Login
Location: Elstree
(51.6403°N, 0.2969°W)
Time: 01:13:37
(UTC+00:00)
Language:

PSLV R/B - Orbit

View from above orbital plane
View from above orbital plane
View from above satellite
View from above satellite

Ground track
Ground track

The orbit data is extracted from the following two-line orbital elements,

1 36800U 10035F   21127.81365735  .00000458  00000-0  47625-4 0  9992
2 36800  98.1614 324.4182 0021302 331.4518  28.5533 14.94921527589276
Epoch (UTC): 07 May 2021 19:31:39
Eccentricity: 0.0021302
inclination: 98.1614°
perigee height: 568 km
apogee height: 597 km
right ascension of ascending node: 324.4182°
argument of perigee: 331.4518°
revolutions per day: 14.94921527
mean anomaly at epoch: 28.5533°
orbit number at epoch: 58927

The dashed part of the orbit path shows where the satellite is in the earth's shadow,  

DLR